User: anonymous   Login
Location: Unspecified
(0.0000°N, 0.0000°E)
Time: 22:28:46
(UTC+00:00)
Language:

Tiros 10 - Orbit

View from above orbital plane
View from above orbital plane
View from above satellite
View from above satellite

Ground track
Ground track

The orbit data is extracted from the following two-line orbital elements,

1 01430U 65051A   16241.52459588  .00000026  00000-0  20767-4 0  9999
2 01430  98.1066  44.6039 0057699  61.9364 298.7643 14.40156997680976
Epoch (UTC): 28 August 2016 12:35:25
Eccentricity: 0.0057699
inclination: 98.1066°
perigee height: 717 km
apogee height: 799 km
right ascension of ascending node: 44.6039°
argument of perigee: 61.9364°
revolutions per day: 14.40156997
mean anomaly at epoch: 298.7643°
orbit number at epoch: 68097

The dashed part of the orbit path shows where the satellite is in the earth's shadow,  

DLR